Regional Weather Roundup
Issued by NWS Pendleton, OR

Home | Current Version | Previous Version | Text Only | Print | Product List | Glossary On
Versions: 1 2 3 4 5 6 7 8 9 10 11 12 13 14 15 16 17 18 19 20 21 22 23 24 25 26 27 28 29 30 31 32 33 34 35 36 37 38 39 40 41 42 43 44 45 46 47 48 49 50
000
ASUS46 KPDT 060325
RWRPDT
PENDLETON REGIONAL WEATHER ROUNDUP
NATIONAL WEATHER SERVICE PENDLETON OREGON
700 PM PST THU MAR 5 2015

NOTE: FAIR INDICATES FEW OR NO CLOUDS BELOW 12,000 FEET WITH NO
SIGNIFICANT WEATHER AND/OR OBSTRUCTIONS TO VISIBILITY.

# INDICATES UNOFFICIAL STATION AND DATA

WAZ520-060410-
EAST SLOPES OF WASHINGTON CASCADES

CITY            SKY/WX      TMP DP  RH  WIND    PRES   REMARKS
#BUMPING DAM    N/A         40  N/A N/A CALM    N/A
#CLE ELUM HS    N/A         50  27  41  NW3     30.24R
#CLE ELUM LAKE  N/A         46  25  43  CALM    30.33R
#CLIFFDEL 2NW   N/A         48  21  34  NW2     N/A
#MANASTASH CYN  N/A         39  29  67  CALM    30.25R
#NELSON         N/A         50  31  48  CALM    30.37R
#NELSON 3SW     N/A         41  29  62  CALM    30.57R
#NILE           N/A         42  32  67  NE1     29.60R
#RONALD 2NW     N/A         46  29  51  NE2     30.14R
#SNOWDEN        N/A         44  15  30  CALM    N/A
#TEANAWAY 4NE   N/A         48  28  46  N2      N/A
#TROUT LAKE 1NE N/A         46  32  58  W1      30.35R
$$

WAZ521-060410-
SIMCOE HIGHLANDS

CITY            SKY/WX      TMP DP  RH  WIND    PRES   REMARKS
#BICKLETON HS   N/A         44  24  45  W3      N/A
#CENTERVILLE 4W N/A         51  30  44  NW7     30.03R
#CENTERVILLE 1SWN/A         45  32  60  CALM    30.33R
#GOLDENDALE     N/A         52  29  41  SW5     N/A
#GOLDENDALE 1NE N/A         46  23  40  W1      N/A
#GOLDENDALE 5WNWN/A         N/A N/A N/A NE1     30.29R
#GOODNOE HILLS  N/A         49  33  54  NW7     N/A
#LYLE 6NE       N/A         53  33  46  S2      30.30R
$$

WAZ026-060410-
KITTITAS VALLEY

CITY            SKY/WX      TMP DP  RH  WIND    PRES   REMARKS
ELLENSBURG AP   CLOUDY      49  29  46  S3      30.28R
#ELLENSBURG CWU N/A         51  30  44  CALM    30.27R
#ELLENSBURG 3NE N/A         49  32  52  N1      30.27R
#KITTITAS 4N    N/A         51  30  44  NW6     28.59R
#KITTITAS 3S    N/A         41  32  70  CALM    30.32R
#THORP 6N       N/A         48  26  42  NW6     30.35R
$$

WAZ027-060410-
YAKIMA VALLEY

CITY            SKY/WX      TMP DP  RH  WIND    PRES   REMARKS
SUNNYSIDE AP    MOCLDY      39  29  67  CALM    30.32R
YAKIMA AIRPORT  CLOUDY      49  29  46  CALM    30.31R
YAKIMA-VAGABOND CLOUDY      45  29  53  E5      30.31R
#DONALD 2NE     N/A         50  16  25  CALM    29.16R
#MABTON         N/A         44  29  55  S7      30.31R
#NACHES 2SW     N/A         47  31  53  CALM    30.29S
#SELAH 8E       N/A         40  26  57  SE6     N/A
#TERRACE HTS    N/A         45  31  58  CALM    30.32R
#WAPATO 4NE     N/A         50  16  25  CALM    29.16R
#WEST VALLEY    N/A         49  31  50  CALM    30.32R
#W YAKIMA       N/A         49  30  48  CALM    30.34R
#WHITE SWAN 5E  N/A         48  35  60  CALM    30.34R
#WILEY CITY 3W  N/A         41  20  43  CALM    30.31R
$$

WAZ028-060410-
LOWER COLUMBIA BASIN...WASHINGTON

CITY            SKY/WX      TMP DP  RH  WIND    PRES   REMARKS
PASCO           PTCLDY      44  29  55  N3      30.32R
PROSSER AWOS    N/A         37  30  75  W2      30.35R
RICHLAND AWOS   PTCLDY      45  27  49  S3      30.32R
#BASIN CITY 5SW N/A         45  26  47  NE1     30.31R
#BENTON CITY    N/A         47  29  49  W3      30.24R
#CONNELL 5N     N/A         47  26  44  CALM    30.33R
#CONNELL 5NW    N/A         46  27  47  CALM    30.30R
#ELTOPIA        N/A         46  28  49  CALM    30.30R
#ELTOPIA 6NW    N/A         49  27  42  CALM    29.27R
#KAHLOTUS       N/A         49  25  39  N2      30.34R
#KENNEWICK 3S   N/A         47  30  51  CALM    30.34R
#PASCO-BROADMOORN/A         46  27  47  CALM    30.23R
#PATERSON       N/A         50  31  48  N3      30.30R
#PROSSER        N/A         50  27  41  S2      30.33R
#SAGEMOOR 2W    N/A         50  28  42  CALM    30.19R
#TOUCHET 2S     N/A         45  28  51  NE1     30.32R
#WEST PASCO     N/A         46  27  47  CALM    30.33R
$$

WAZ029-060410-
FOOTHILLS OF THE BLUES...WASHINGTON

CITY            SKY/WX      TMP DP  RH  WIND    PRES   REMARKS
WALLA WALLA AP  PTCLDY      47  27  45  E5      30.31R
#DAYTON SCHOOL  N/A         43  20  39  CALM    30.31R
#LOWDEN 2SE     N/A         46  30  53  CALM    30.27R
#PLEASANT VIEW 1N/A         46  25  43  W1      30.38R
#PRESCOTT       N/A         42  31  65  CALM    30.32R
#SUDBURY        N/A         40  N/A N/A CALM    N/A
#WHITMAN COLLEGEN/A         53  30  41  CALM    30.37R
#WAITSBURG 5S   N/A         48  25  40  CALM    30.42R
#WAITSBURG 8N   N/A         36   5  27  N1      30.15R
#WALLA WALLA 5E N/A         43  29  57  NE7     N/A
#WALLA WALLA U  N/A         54  30  40  CALM    30.31R
#WHITMAN MISSIONN/A         48  33  56  CALM    30.35R
$$

WAZ030-060410-
BLUE MOUNTAINS...WASHINGTON

CITY            SKY/WX      TMP DP  RH  WIND    PRES   REMARKS
#DIXIE 5SE      N/A         48  19  31  CALM    30.24R
#SKI BLUEWOOD   N/A         35  24  64  S1      30.29R
$$

ORZ009-041-WAZ024-060410-
COLUMBIA RIVER GORGE

CITY            SKY/WX      TMP DP  RH  WIND    PRES   REMARKS
HOOD RIVER AP   MOCLDY      52  32  46  N5      30.32R
THE DALLES AP   MOCLDY      52  33  48  CALM    30.30R
#ARLINGTON AIRPON/A         51  34  52  CALM    30.00F
#ARLINGTON HS   N/A         47  35  63  CALM    30.25R
#CELILO DOT     N/A         52  30  43  CALM    N/A
#MOSIER 1S      N/A         53  22  29  N6      30.29R
#MURDOCK        N/A         57  37  47  SE1     30.33R
#RUFUS DOT      N/A         49  32  52  CALM    N/A

$$

ORZ510-060410-
NORTH CENTRAL OREGON

CITY            SKY/WX      TMP DP  RH  WIND    PRES   REMARKS
#CHENOWITH 1W   N/A         51  29  42  NW16    N/A
#COW CYN RST AREN/A         52  25  35  NW3     N/A
#DUFUR 9E       N/A         51  30  44  CALM    30.38R
#GRASS VALLEY 1SN/A         48  33  56  E1      30.40R
#KENT DOT       N/A         48  21  34  NE3     N/A
#MAUPIN SCHOOL  N/A         53  31  43  CALM    30.31R
#MORO SCHOOL    N/A         42  35  76  SW2     30.30R
#SHANIKO 5WSW   N/A         50  19  29  NE5     N/A
#SHANIKO 4NW    N/A         49  25  39  E3      30.31R
#TYGH VALLEY 2NEN/A         52  33  48  CALM    30.32R
#WAPANITIA AIRPON/A         45  33  63  W1      30.36R
#WASCO DOT      N/A         42  32  67  CALM    N/A
#WASCO 5NE      N/A         42  32  67  CALM    30.34R
$$

ORZ511-060410-
CENTRAL OREGON

CITY            SKY/WX      TMP DP  RH  WIND    PRES   REMARKS
BEND AIRPORT    PTCLDY      46  23  40  CALM    30.32R
MADRAS AIRPORT  MOCLDY      48  28  46  CALM    30.32R
PRINEVILLE AP   PTCLDY      41  23  48  CALM    30.32R
REDMOND AIRPORT PTCLDY      48  26  42  CALM    30.30R
#BEND 6E        N/A         51  17  26  CALM    30.33R
#BEND 1SW       N/A         43  26  51  N1      N/A
#BEND-AWBREY    N/A         48  27  44  NE1     30.35R
#BEND-KIM LN    N/A         49  24  37  CALM    30.29R
#CROOKED RVR RANN/A         54  26  34  NE2     30.34R
#CULVER         N/A         46  27  47  CALM    30.27R
#LAKE BILLY CHINN/A         54  -4   9  SE2     30.35R
#POWELL BUTTE   N/A         48  25  40  W2      29.93R
#PRINEVILLE 3N  N/A         47  27  45  E1      30.33R
#WARM SPRINGS   N/A         51  35  54  CALM    30.26R

$$


ORZ509-060410-
EAST SLOPES OF OREGON CASCADES

CITY            SKY/WX      TMP DP  RH  WIND    PRES   REMARKS
#BLUE BOX PASS  N/A         48  -4  11  NW6     N/A
#CAMP SHERMAN   N/A         44  27  51  CALM    30.48R
#LA PINE DOT    N/A         45  -3  13  CALM    N/A
#LA PINE 4NW    N/A         42  17  36  CALM    30.46R
#LAVA BUTTE DOT N/A         41  15  34  CALM    N/A
#MT BACHELOR-MIDN/A         38  -10 12  S9      N/A
#SISTERS AIRPOR N/A         53  32  45  CALM    30.17S
#SISTERS ODOT   N/A         53  N/A N/A CALM    N/A
#SISTERS 3N     N/A         46  16  30  CALM    30.31R
#SUNRIVER       N/A         40  22  48  CALM    30.30R
#SUTTLE LK DOT  N/A         43  26  51  W17     N/A    WCI 35
#TUMALO 3W      N/A         52  23  32  CALM    30.21R
#WANOGA BUTTE D N/A         43  13  29  CALM    N/A

$$

ORZ044-060410-
LOWER COLUMBIA BASIN...OREGON

CITY            SKY/WX      TMP DP  RH  WIND    PRES   REMARKS
HERMISTON       MOCLDY      41  27  57  NE5     30.30R
#BOARDMAN 8SW   N/A         50  34  54  N1      30.32R
#IONE SCHOOL    N/A         47  32  56  CALM    30.29R
#IRRIGON 4NW    N/A         48  32  54  N3      N/A
#UMATILLA SCHOOLN/A         44  34  68  CALM    30.34R
#UMATILLA       N/A         50  28  42  CALM    30.29R
$$

ORZ507-060410-
NORTHERN FOOTHILLS OF THE BLUES

CITY            SKY/WX      TMP DP  RH  WIND    PRES   REMARKS
PENDLETON AIRPT MOCLDY      43  24  47  CALM    30.29R
#ADAMS 3WNW     N/A         36  26  67  N2      30.35R
#ATHENA         N/A         38  25  59  CALM    30.35R
#CAYUSE         N/A         47  29  49  E2      30.31S
#HELIX SCHOOL   N/A         39  25  57  NW1     30.34R
#HELIX 3N       N/A         42  24  48  CALM    30.25R
#HOLDMAN 5SE    N/A         38  28  67  CALM    30.29R
#HOLDMAN 6E     N/A         46  25  43  CALM    30.14R
#M-F FERNDALE   N/A         46  28  49  CALM    30.28R
#M-F GROVE ELEM N/A         45  25  45  CALM    30.28R
#M-FREEWATER 5SEN/A         46  29  51  CALM    30.29R
#PENDLETON DNTN N/A         47  19  32  CALM    30.28S
#PDT AQUATIC CTRN/A         47  21  35  CALM    30.31R
#PENDLETON 5NE  N/A         39  27  62  CALM    30.25R
#PDT SUNRIDGE   N/A         42  27  55  CALM    30.31R
#PENDLETON 7NW  N/A         48  31  51  E1      27.70S
#PILOT ROCK     N/A         43  27  53  CALM    30.30S
#TUTUILLA       N/A         37  29  72  CALM    30.32S
#UMAPINE 2E     N/A         41  28  59  CALM    30.28R
#WESTON SCHOOL  N/A         45  20  36  CALM    30.28R

$$

ORZ508-060410-
SOUTHERN FOOTHILLS OF THE BLUES

CITY            SKY/WX      TMP DP  RH  WIND    PRES   REMARKS
LEXINGTON       PTCLDY      46  30  53  E8      30.31R
#AJAX           N/A         52  23  32  CALM    30.22R
#CONDON SCHOOL  N/A         49  30  48  CALM    30.24R
#CONDON 5W      N/A         50  23  34  N1      30.28R
#FOSSIL SCHOOL  N/A         44  30  58  CALM    30.27R
#HEPPNER EOC    N/A         46  30  53  E1      30.29R
#HEPPNER 4NE    N/A         46  27  47  CALM    30.33R
#LEXINGTON 2SE  N/A         45  30  55  S7      30.27R
#MIKKALO        N/A         43  29  57  N5      30.29R
#OLEX 4N        N/A         45  35  68  CALM    30.28R
#RUGGS 5NE      N/A         43  26  51  N2      30.46R
#RUGGS 2SW      N/A         46  29  51  SW2     30.35R

$$

ORZ502-503-060410-
BLUE MOUNTAINS

CITY            SKY/WX      TMP DP  RH  WIND    PRES   REMARKS
MEACHAM         PTCLDY      33  21  61  CALM    30.32S
#BATTLE MTN DOT N/A         39  28  64  CALM    N/A
#HEPPNER 15SE   N/A         35  27  72  CALM    30.25R
#LADD CYN SMT   N/A         39  14  35  E5      N/A
#LADD CREEK ODOTN/A         39  21  48  SW3     N/A
#LONG CREEK HS  N/A         39  27  62  CALM    30.29R
#N POWDER DOT   N/A         34  20  56  W1      N/A
#PIKES PEAK     N/A         47  19  32  SW7     27.99S
#TROY SCHOOL    N/A         43  28  55  NW5     30.20R
#UKIAH          N/A         38  27  64  CALM    30.47R
#WESTON 4E      N/A         47  24  40  SE5     30.29S
$$

ORZ505-060410-
JOHN DAY BASIN

CITY            SKY/WX      TMP DP  RH  WIND    PRES   REMARKS
JOHN DAY        PTCLDY      42  24  48  E6      30.34R
#JOHN DAY KJDY  N/A         41  31  67  E2      30.30F
#DAYVILLE SCHOOLN/A         48  27  44  CALM    30.27R
#MONUMENT HS    N/A         43  27  53  CALM    30.30R
#MT. VERNON 5SE N/A         42  21  43  CALM    30.29R
#SPRAY SCHOOL   N/A         41  N/A N/A CALM    N/A
#WINLOCK        N/A         41  24  50  CALM    30.37R
$$

ORZ506-060410-
OCHOCO AND JOHN DAY HIGHLANDS

CITY            SKY/WX      TMP DP  RH  WIND    PRES   REMARKS
#BUCK CREEK DOT N/A         51  51  100 NE3     N/A
#HORSE RIDGE DO N/A         43  19  38  S2      N/A
#KEYES SMT DOT  N/A         48  20  33  CALM    N/A
#PAULINA SCHOOL N/A         42  28  57  CALM    30.25R
#PINE MTN OBS   N/A         44  11  26  NW3     N/A
#PRAIRIE CITY   N/A         33  22  63  E1      30.49R
#SENECA         N/A         34  N/A N/A CALM    N/A
#SENECA 9NW     N/A         33  21  61  CALM    30.49R
$$

ORZ049-060410-
GRANDE RONDE VALLEY

CITY            SKY/WX      TMP DP  RH  WIND    PRES   REMARKS
LA GRANDE       PTCLDY      46  18  32  S14     30.31R WCI 40
#COVE           N/A         40  26  57  CALM    30.31R
#COVE SCHOOL    N/A         41  24  50  E2      30.27R
#ELGIN 3N       N/A         39  17  40  CALM    30.27R
#ELGIN 1E       N/A         47  24  40  CALM    N/A
#IMBLER SCHOOL  N/A         40  23  50  CALM    30.26R
#ISLAND CITY 4N N/A         48  42  80  CALM    30.33R
#LADD CYN DOT   N/A         45  17  32  SE15    N/A    WCI 38
#UNION 1S       N/A         47  23  38  E9      30.29R
$$

ORZ050-060410-
WALLOWA COUNTY

CITY            SKY/WX      TMP DP  RH  WIND    PRES   REMARKS
JOSEPH AIRPORT  PTCLDY      34  23  64  S3      30.33S
#ENTERPRISE HS  N/A         36  25  64  CALM    30.29R
#IMNAHA SCHOOL  N/A         51  22  32  SW8     30.29R
#IMNAHA 10S     N/A         43  22  43  SW6     30.29R
#JOSEPH 3N      N/A         29  21  72  CALM    30.30S
#JOSEPH 3W      N/A         35  15  43  SW2     30.13R
#LOSTINE        N/A         37  23  56  SE3     30.22R
#MT HOWARD 8000 N/A         32   6  33  SW7     30.31S
#PROMISE 1S     N/A         45  23  41  E1      30.49R
#SHEEP RDG 7000 N/A         36   9  32  CALM    30.37F
#WALLOWA SCHOOL N/A         36  24  61  CALM    31.39R



$$



USA.gov is the U.S. government's official web portal to all federal, state and local government web resources and services.